Hourly Data Report for April 27, 2017

All times are specified in Local Standard Time (LST). Add 1 hour to adjust for Daylight Saving Time where and when it is observed.

TORONTO CITY
ONTARIO

43°40'00.000" N
79°24'00.000" W
112.50 m
6158355
71508
XTO

Download Data

Hourly Data (April 2017)
Hourly Data Report for April 27, 2017
TIME Temp Definition
°C
Dew Point Definition
°C
Rel Hum Definition
%
Wind Dir Definition
10's deg

Wind Spd Definition
km/h
Visibility Definition
km
Stn Press Definition
kPa
Hmdx Definition


Wind Chill Definition


Weather Definition


00:00 14.1 10.9 81 LegendMM LegendMM   99.16     LegendNANA
01:00 12.2 9.7 85 LegendMM LegendMM   99.15     LegendNANA
02:00 11.5 9.2 86 LegendMM LegendMM   99.11     LegendNANA
03:00 10.7 8.7 87 LegendMM LegendMM   99.10     LegendNANA
04:00 10.7 8.5 87 LegendMM LegendMM   99.08     LegendNANA
05:00 11.6 9.5 87 LegendMM LegendMM   99.08     LegendNANA
06:00 12.7 10.5 87 LegendMM LegendMM   99.07     LegendNANA
07:00 13.9 10.6 81 LegendMM LegendMM   99.12     LegendNANA
08:00 15.8 11.0 73 LegendMM LegendMM   99.13     LegendNANA
09:00 18.1 11.9 67 LegendMM LegendMM   99.09     LegendNANA
10:00 19.0 12.0 64 LegendMM LegendMM   99.08     LegendNANA
11:00 20.6 12.4 59 LegendMM LegendMM   99.05     LegendNANA
12:00 21.4 13.1 59 LegendMM LegendMM   98.96     LegendNANA
13:00 23.1 13.1 53 LegendMM LegendMM   98.91 26   LegendNANA
14:00 24.7 13.3 49 LegendMM LegendMM   98.86 28   LegendNANA
15:00 24.2 13.1 50 LegendMM LegendMM   98.69 27   LegendNANA
16:00 22.7 13.5 56 LegendMM LegendMM   98.58 26   LegendNANA
17:00 22.9 13.5 55 LegendMM LegendMM   98.60 26   LegendNANA
18:00 17.9 15.0 83 LegendMM LegendMM   98.90     LegendNANA
19:00 17.2 15.0 87 LegendMM LegendMM   98.90     LegendNANA
20:00 16.3 14.6 90 LegendMM LegendMM   98.97     LegendNANA
21:00 14.7 12.8 88 LegendMM LegendMM   99.04     LegendNANA
22:00 12.5 10.2 86 LegendMM LegendMM   99.14     LegendNANA
23:00 11.6 9.2 85 LegendMM LegendMM   99.28     LegendNANA

Notes on Data Quality.

Legend

  • E = Estimated
  • M = Missing
  • NA = Not Available
Date modified: